Topeka Forbes, KS

3:36 AM CDT on October 19, 2017 (GMT -0500)
Forbes

Weather History for KFOE - November, 2013

Change the Weather History Date:

Thursday, November 7, 2013

  Actual Average Record
Temperature  
Mean Temperature 42 °F -  
Max Temperature 57 °F 56 °F 78 °F (1980)
Min Temperature 28 °F 34 °F 8 °F (1991)
Degree Days  
Heating Degree Days 22    
Moisture  
Dew Point 30 °F    
Average Humidity 70    
Maximum Humidity 92    
Minimum Humidity 36    
Precipitation  
Precipitation 0.00 in - - ()
Sea Level Pressure  
Sea Level Pressure 30.38 in    
Wind  
Wind Speed 6 mph (West)    
Max Wind Speed 15 mph    
Max Gust Speed -    
Visibility 10 miles    
Events      
Averages and records for this station are not official NWS values.
T = Trace of Precipitation, MM = Missing Value Source: NWS Daily Summary

Daily Weather History Graph

Daily Weather History Graph

Search for Another Location

Airport or City:

Trip Planner

Search our weather history database for the weather conditions in past years. The results will help you decide how hot, cold, wet, or windy it might be!

Date:

Astronomy

Nov. 07, 2013 Rise Set
Actual Time 6:56 AM CST 5:15 PM CST
Civil Twilight 6:28 AM CST 5:43 PM CST
Nautical Twilight 5:56 AM CST 6:15 PM CST
Astronomical Twilight 5:25 AM CST 6:46 PM CST
Moon 11:05 AM CST (11/7) 9:28 PM CST (11/7)
Length of Visible Light 11h 14m
Length of Day
10h 18m
Waxing Crescent, 23% of the Moon is Illuminated
Nov 7
Waxing Crescent
Nov 9
First Quarter
Nov 17
Full
Nov 25
Last Quarter
Dec 2
New

Hourly Weather History & Observations

Time (CST) Temp. Windchill Dew Point Humidity Pressure Visibility Wind Dir Wind Speed Gust Speed Precip Events Conditions
12:53 AM 30.9 °F 24.3 °F 28.0 °F 89% 30.36 in 10.0 mi South 6.9 mph - N/A   Clear
1:53 AM 30.9 °F 27.5 °F 28.0 °F 89% 30.35 in 10.0 mi South 3.5 mph - N/A   Clear
2:53 AM 30.9 °F 27.5 °F 28.0 °F 89% 30.35 in 10.0 mi South 3.5 mph - N/A   Clear
3:53 AM 30.0 °F 26.5 °F 27.0 °F 88% 30.35 in 10.0 mi SSE 3.5 mph - N/A   Clear
4:53 AM 30.0 °F 25.2 °F 28.0 °F 92% 30.37 in 10.0 mi SSW 4.6 mph - N/A   Clear
5:53 AM 30.0 °F - 27.0 °F 88% 30.38 in 10.0 mi Calm Calm - N/A   Clear
6:53 AM 28.0 °F 21.7 °F 26.1 °F 92% 30.40 in 10.0 mi SSW 5.8 mph - N/A   Clear
7:53 AM 32.0 °F 28.7 °F 28.0 °F 85% 30.42 in 10.0 mi NNW 3.5 mph - N/A   Clear
8:53 AM 41.0 °F 34.7 °F 34.0 °F 76% 30.43 in 10.0 mi WNW 10.4 mph - N/A   Clear
9:53 AM 46.0 °F 40.2 °F 33.1 °F 61% 30.43 in 10.0 mi NW 12.7 mph - N/A   Clear
10:53 AM 51.1 °F - 34.0 °F 52% 30.45 in 10.0 mi NNW 13.8 mph - N/A   Clear
11:53 AM 53.1 °F - 34.0 °F 48% 30.43 in 10.0 mi NW 12.7 mph - N/A   Clear
12:53 PM 55.9 °F - 33.1 °F 42% 30.40 in 10.0 mi NW 12.7 mph - N/A   Clear
1:53 PM 57.0 °F - 30.0 °F 36% 30.38 in 10.0 mi NW 15.0 mph - N/A   Clear
2:53 PM 55.9 °F - 30.0 °F 37% 30.37 in 10.0 mi NW 11.5 mph - N/A   Clear
3:53 PM 55.0 °F - 28.9 °F 37% 30.38 in 10.0 mi WNW 12.7 mph - N/A   Clear
4:53 PM 48.9 °F - 30.9 °F 50% 30.38 in 10.0 mi NNW 6.9 mph - N/A   Clear
5:53 PM 45.0 °F - 28.9 °F 53% 30.38 in 10.0 mi Calm Calm - N/A   Clear
6:53 PM 41.0 °F - 30.9 °F 67% 30.39 in 10.0 mi Calm Calm - N/A   Clear
7:53 PM 37.9 °F - 30.0 °F 73% 30.38 in 5.0 mi Calm Calm - N/A   Haze
8:53 PM 36.0 °F - 28.9 °F 76% 30.37 in 10.0 mi Calm Calm - N/A   Clear
9:53 PM 34.0 °F - 28.9 °F 82% 30.36 in 10.0 mi Calm Calm - N/A   Clear
10:53 PM 33.1 °F - 28.9 °F 85% 30.35 in 10.0 mi Calm Calm - N/A   Clear
11:53 PM 30.9 °F 27.5 °F 27.0 °F 85% 30.34 in 10.0 mi SSE 3.5 mph - N/A   Clear